Location: Melizzano
(41.1500°N, 14.5000°E)
Time: 14:11:16
(UTC+00:00)

X-37B - Pass Details

Date: 11 May 2021
Orbit: 386 x 389 km, 45.0° (Epoch: 10 June)

Event Time Altitude Azimuth Distance (km) Brightness Sun altitude
Rises 19:59:14 0° 290° (WNW) 2,273 5.7 -17.7°
Reaches altitude 10° 20:01:19 10° 289° (WNW) 1,416 4.4 -17.9°
Maximum altitude 20:04:30 78° 203° (SSW) 399 0.5 -18.4°
Enters shadow 20:04:40 74° 161° (SSE) 405 0.4 -18.4°
